This is the latest recevied weather packets stored in our database for station/object OK3MS-5. If no packets are shown the sender has not sent any weather packets the latest 10 day(s).
| Time | Temp. | Humidity | Pressure | Rain* | Wind** | Luminosity | Snow |
|---|---|---|---|---|---|---|---|
| 1777559403 | 12.78° C | 28% | 1027.2 hPa | 0 mm | - | 449 W/m² | - |
| 1777559102 | 13.33° C | 26% | 1027.2 hPa | 0 mm | - | 461 W/m² | - |
| 1777558804 | 12.78° C | 29% | 1027.5 hPa | 0 mm | - | 472 W/m² | - |
| 1777558503 | 12.22° C | 28% | 1027.5 hPa | 0 mm | - | 484 W/m² | - |
| 1777558203 | 12.22° C | 30% | 1027.6 hPa | 0 mm | - | 496 W/m² | - |
| 1777557905 | 13.33° C | 28% | 1027.4 hPa | 0 mm | - | 508 W/m² | - |
| 1777557607 | 12.22° C | 28% | 1027.6 hPa | 0 mm | - | 524 W/m² | - |
| 1777557304 | 12.22° C | 29% | 1027.6 hPa | 0 mm | - | 532 W/m² | - |
| 1777557003 | 12.22° C | 28% | 1027.6 hPa | 0 mm | - | 550 W/m² | - |
| 1777556705 | 12.22° C | 29% | 1027.6 hPa | 0 mm | - | 555 W/m² | - |
| 1777556106 | 12.22° C | 29% | 1027.7 hPa | 0 mm | - | 578 W/m² | - |
| 1777555805 | 11.67° C | 30% | 1027.8 hPa | 0 mm | - | 590 W/m² | - |
| 1777555505 | 12.22° C | 29% | 1027.6 hPa | 0 mm | - | 601 W/m² | - |
| 1777555203 | 12.22° C | 28% | 1027.7 hPa | 0 mm | - | 609 W/m² | - |
| 1777554907 | 11.67° C | 30% | 1027.7 hPa | 0 mm | - | 621 W/m² | - |
| 1777554606 | 11.67° C | 29% | 1027.9 hPa | 0 mm | - | 629 W/m² | - |
| 1777554303 | 12.22° C | 31% | 1027.8 hPa | 0 mm | - | 639 W/m² | - |
| 1777554005 | 11.67° C | 31% | 1028 hPa | 0 mm | - | 645 W/m² | - |
| 1777553706 | 12.22° C | 30% | 1027.8 hPa | 0 mm | - | 651 W/m² | - |
| 1777553405 | 12.22° C | 31% | 1028 hPa | 0 mm | - | 657 W/m² | - |
| 1777553104 | 11.67° C | 30% | 1028 hPa | 0 mm | - | 663 W/m² | - |
| 1777552804 | 12.22° C | 28% | 1027.9 hPa | 0 mm | - | 671 W/m² | - |
| 1777552504 | 11.67° C | 29% | 1028.3 hPa | 0 mm | - | 677 W/m² | - |
| 1777552205 | 11.67° C | 29% | 1028.2 hPa | 0 mm | - | 683 W/m² | - |
| 1777551904 | 11.67° C | 29% | 1028.4 hPa | 0 mm | - | 688 W/m² | - |
* Rain latest hour (hover to see other rain measurements)
** Current wind speed in m/s (hover to see current wind gust speed)